CZ-6A DEB, 56269

Orbit data source: Space-Track

CZ-6A DEB, 56269 is space debris in SSO originally from a launch on Fri, 11 Nov 2022 UTC launched from the Taiyaun Space Center, China (TSC). Debris objects in space refer to the collection of defunct objects orbiting the Earth. Examples of debris include non-operational satellites, rocket bodies, and fragments generated from explosions, collisions, or faulty payload assembly.

Loading next visibility...
Identifier
56269, 2022-151ACM
Orbit
SSO
Country
Flag of CNCN / PRC
Related business
Manufacturer
SAST
Mission
Spacecraft
Bus & Motor
Unknown
Mass
Unknown
Launch date (UTC)
2022-11-11 (4 years ago)
Launch vehicle
Unknown
Launch site
Taiyaun Space Center, China (TSC)
Object type
Payload
Rocket body
Debris
Shape & HBR
Unknown shape, 0.1 m
Radar Cross Section
Small (<0.1 m²)

Expand to show TLE details & history
Last TLE update: 15 hours ago

TLE from 15 hours ago
0 CZ-6A DEB
1 56269U 22151ACM 26228.48053174  .00000219  00000-0  14025-3 0  9998
2 56269  98.8340 232.1627 0037830 152.5108 207.8076 14.12903436179288
Epoch: 2026-08-16T11:31Z
TLE epoch observation values (Epoch: 2026-08-16T11:31:57.942Z)
Latitude
0.00001°
Longitude
94.29483°
Altitude
876.566 km
Speed
7.402 km/s
True Right ascension
15h 28m 39s
True Declination
0° 00' 00"
Sunlit
Object was in daylight at epoch
Visualization orbit readout
Latitude
Unknown
Longitude
Unknown
Altitude
Unknown
Speed
Unknown
Apparent Right ascension
Unknown
Apparent Declination
Unknown
Sunlit
N/A
Visualization observer readout
Local Sidereal Time
17:04:24
Azimuth
Unknown
Elevation
Unknown
Doppler factor
Unknown
Orbital elements
Apogee altitude
873.958 km
Perigee altitude
819.296 km
Semi-major axis
7,224.764 km
Eccentricity
0.00378
Inclination
98.834°
RAAN
232.1627°
Arg. of periapsis
152.5108°
True anomaly
207.60621°
Mean anomaly
207.8076°
Eccentric anomaly
207.70682°
Mean motion
3.53433 °/min
Orbital period
101.86 mins
BSTAR
0.00014025
Loading maneuver chart data...
Computing Atmospheric mass density...
Loading historical data...
Loading historical data...
Loading historical data...
Loading historical data...
Loading historical data...
Loading historical data...
Loading historical data...

Documentation

Showing up to 5 results
|